Time,TemperatureF,DewpointF,PressureIn,WindDirection,WindDirectionDegrees,WindSpeedMPH,WindSpeedGustMPH,Humidity,HourlyPrecipIn,Conditions,Clouds,dailyrainin,SoftwareType,DateUTC
2013-05-28 00:01:00,65.4,63.3,29.58,ENE,73,2.4,8.1,93,0.02,RA,SKC,0.00,WeatherDisplay:10.37,2013-05-28 05:01:00,
2013-05-28 00:06:00,65.4,63.3,29.59,NE,37,1.8,4.6,93,0.01,RA,SKC,0.00,WeatherDisplay:10.37,2013-05-28 05:06:00,
2013-05-28 00:11:00,65.2,63.1,29.58,NNE,13,3.4,5.8,93,0.01,CLR,SKC,0.00,WeatherDisplay:10.37,2013-05-28 05:11:00,
2013-05-28 00:17:00,65.2,63.4,29.59,NE,37,3.7,4.0,94,0.01,CLR,SKC,0.00,WeatherDisplay:10.37,2013-05-28 05:17:00,
2013-05-28 00:22:00,65.1,63.3,29.58,NE,37,1.5,3.5,94,0.01,CLR,SKC,0.00,WeatherDisplay:10.37,2013-05-28 05:22:00,
2013-05-28 00:27:00,64.9,63.1,29.59,NNE,27,0.8,3.5,94,0.00,CLR,SKC,0.00,WeatherDisplay:10.37,2013-05-28 05:27:00,
2013-05-28 00:32:00,65.0,63.2,29.58,NNW,327,1.2,2.3,94,0.00,CLR,SKC,0.00,WeatherDisplay:10.37,2013-05-28 05:32:00,
2013-05-28 00:37:00,64.8,63.3,29.59,North,352,1.2,3.5,95,0.00,CLR,SKC,0.00,WeatherDisplay:10.37,2013-05-28 05:37:00,
2013-05-28 00:42:00,64.7,63.2,29.60,NE,46,3.3,5.0,95,0.00,SCT,SKC,0.00,WeatherDisplay:10.37,2013-05-28 05:42:00,
2013-05-28 00:47:00,64.7,63.2,29.61,NNE,18,0.0,3.5,95,0.00,SCT,SKC,0.00,WeatherDisplay:10.37,2013-05-28 05:47:00,
2013-05-28 00:52:00,64.7,63.2,29.62,West,259,0.0,1.0,95,0.00,SCT,SKC,0.00,WeatherDisplay:10.37,2013-05-28 05:52:00,
2013-05-28 00:57:00,64.5,63.3,29.63,SW,229,0.3,1.1,96,0.00,SCT,SKC,0.00,WeatherDisplay:10.37,2013-05-28 05:57:00,
2013-05-28 01:02:00,64.4,63.2,29.63,SW,229,0.0,0.0,96,0.00,BKN,SKC,0.00,WeatherDisplay:10.37,2013-05-28 06:02:00,
2013-05-28 01:07:00,64.2,63.0,29.63,SW,233,0.6,1.1,96,0.00,BKN,SKC,0.00,WeatherDisplay:10.37,2013-05-28 06:07:00,
2013-05-28 01:12:00,64.1,62.9,29.63,North,3,0.5,0.0,96,0.00,BKN,SKC,0.00,WeatherDisplay:10.37,2013-05-28 06:12:00,
2013-05-28 01:17:00,64.0,63.1,29.63,North,3,0.0,0.0,97,0.00,BKN,SKC,0.00,WeatherDisplay:10.37,2013-05-28 06:17:00,
2013-05-28 01:22:00,64.0,63.1,29.63,NNE,13,1.4,2.3,97,0.00,SCT,SKC,0.00,WeatherDisplay:10.37,2013-05-28 06:22:00,
2013-05-28 01:27:00,63.9,63.0,29.63,NNE,13,0.0,0.0,97,0.00,SCT,SKC,0.00,WeatherDisplay:10.37,2013-05-28 06:27:00,
2013-05-28 01:32:00,64.0,63.1,29.62,North,357,1.2,2.3,97,0.00,SCT,SKC,0.00,WeatherDisplay:10.37,2013-05-28 06:32:00,
2013-05-28 01:37:00,63.9,63.0,29.63,NNE,15,0.0,1.1,97,0.00,SCT,SKC,0.00,WeatherDisplay:10.37,2013-05-28 06:37:00,
2013-05-28 01:42:00,63.9,63.0,29.62,North,11,1.3,3.5,97,0.00,CLR,SKC,0.00,WeatherDisplay:10.37,2013-05-28 06:42:00,
2013-05-28 01:47:00,63.9,63.0,29.63,NNE,12,0.0,0.0,97,0.00,CLR,SKC,0.00,WeatherDisplay:10.37,2013-05-28 06:47:00,
2013-05-28 01:52:00,63.9,63.0,29.62,NNE,28,0.0,0.0,97,0.00,CLR,SKC,0.00,WeatherDisplay:10.37,2013-05-28 06:52:00,
2013-05-28 01:57:00,63.9,63.0,29.62,NNE,28,0.0,0.0,97,0.00,CLR,SKC,0.00,WeatherDisplay:10.37,2013-05-28 06:57:00,
2013-05-28 02:02:00,63.9,63.0,29.61,North,6,1.9,3.5,97,0.00,CLR,SKC,0.00,WeatherDisplay:10.37,2013-05-28 07:02:00,
2013-05-28 02:07:00,63.8,62.9,29.62,NE,36,0.3,1.0,97,0.00,CLR,SKC,0.00,WeatherDisplay:10.37,2013-05-28 07:07:00,
2013-05-28 02:12:00,63.8,62.9,29.62,NNW,345,1.4,2.3,97,0.00,CLR,SKC,0.00,WeatherDisplay:10.37,2013-05-28 07:12:00,
2013-05-28 02:17:00,63.8,62.9,29.62,East,86,0.3,1.1,97,0.00,CLR,SKC,0.00,WeatherDisplay:10.37,2013-05-28 07:17:00,
2013-05-28 02:22:00,63.8,62.9,29.63,NE,49,2.1,3.5,97,0.00,CLR,SKC,0.00,WeatherDisplay:10.37,2013-05-28 07:22:00,
2013-05-28 02:27:00,63.9,63.0,29.62,NE,44,0.0,0.0,97,0.00,CLR,SKC,0.00,WeatherDisplay:10.37,2013-05-28 07:27:00,
2013-05-28 02:32:00,63.9,63.0,29.62,ENE,73,1.3,2.3,97,0.00,CLR,SKC,0.00,WeatherDisplay:10.37,2013-05-28 07:32:00,
2013-05-28 02:37:00,63.9,62.7,29.62,East,91,0.0,0.0,96,0.00,CLR,SKC,0.00,WeatherDisplay:10.37,2013-05-28 07:37:00,
2013-05-28 02:42:00,63.9,62.7,29.62,East,91,0.0,0.0,96,0.00,CLR,SKC,0.00,WeatherDisplay:10.37,2013-05-28 07:42:00,
2013-05-28 02:47:00,63.8,62.6,29.62,SE,144,0.4,1.1,96,0.00,CLR,SKC,0.00,WeatherDisplay:10.37,2013-05-28 07:47:00,
2013-05-28 02:52:00,63.7,62.5,29.61,East,98,0.0,0.0,96,0.00,CLR,SKC,0.00,WeatherDisplay:10.37,2013-05-28 07:52:00,
2013-05-28 02:57:00,63.7,62.5,29.61,East,96,0.0,0.0,96,0.00,CLR,SKC,0.00,WeatherDisplay:10.37,2013-05-28 07:57:00,
2013-05-28 03:02:00,63.6,62.4,29.61,SSE,158,0.0,0.0,96,0.00,CLR,SKC,0.00,WeatherDisplay:10.37,2013-05-28 08:02:00,
2013-05-28 03:07:00,63.3,62.1,29.61,SW,235,0.0,0.0,96,0.00,CLR,SKC,0.00,WeatherDisplay:10.37,2013-05-28 08:07:00,
2013-05-28 03:12:00,62.9,61.7,29.61,SW,235,0.0,0.0,96,0.00,CLR,SKC,0.00,WeatherDisplay:10.37,2013-05-28 08:12:00,
2013-05-28 03:17:00,62.7,61.8,29.61,SW,235,0.0,0.0,97,0.00,CLR,SKC,0.00,WeatherDisplay:10.37,2013-05-28 08:17:00,
2013-05-28 03:22:00,62.5,61.6,29.60,SW,235,0.0,0.0,97,0.00,CLR,SKC,0.00,WeatherDisplay:10.37,2013-05-28 08:22:00,
2013-05-28 03:27:00,62.3,61.4,29.61,SW,236,0.0,0.0,97,0.00,CLR,SKC,0.00,WeatherDisplay:10.37,2013-05-28 08:27:00,
2013-05-28 03:32:00,62.3,61.7,29.61,West,271,0.0,1.1,98,0.00,CLR,SKC,0.00,WeatherDisplay:10.37,2013-05-28 08:32:00,
2013-05-28 03:37:00,62.2,61.6,29.61,West,276,0.3,1.1,98,0.00,CLR,SKC,0.00,WeatherDisplay:10.37,2013-05-28 08:37:00,
2013-05-28 03:42:00,62.2,61.6,29.62,West,276,0.0,0.0,98,0.00,CLR,SKC,0.00,WeatherDisplay:10.37,2013-05-28 08:42:00,
2013-05-28 03:47:00,62.2,61.6,29.62,West,277,0.2,1.1,98,0.00,CLR,SKC,0.00,WeatherDisplay:10.37,2013-05-28 08:47:00,
2013-05-28 03:52:00,62.1,61.5,29.63,West,279,0.0,0.0,98,0.00,CLR,SKC,0.00,WeatherDisplay:10.37,2013-05-28 08:52:00,
2013-05-28 03:57:00,62.1,61.5,29.63,WNW,284,0.0,0.0,98,0.00,CLR,SKC,0.00,WeatherDisplay:10.37,2013-05-28 08:57:00,
2013-05-28 04:02:00,62.1,61.5,29.64,West,262,0.2,1.1,98,0.00,SCT,SKC,0.00,WeatherDisplay:10.37,2013-05-28 09:02:00,
2013-05-28 04:07:00,62.0,61.4,29.65,West,279,0.0,0.0,98,0.00,SCT,SKC,0.00,WeatherDisplay:10.37,2013-05-28 09:07:00,
2013-05-28 04:12:00,62.0,61.4,29.65,West,279,0.0,0.0,98,0.00,SCT,SKC,0.00,WeatherDisplay:10.37,2013-05-28 09:12:00,
2013-05-28 04:17:00,61.9,61.6,29.65,WNW,284,1.3,3.5,99,0.00,SCT,SKC,0.00,WeatherDisplay:10.37,2013-05-28 09:17:00,
2013-05-28 04:22:00,62.0,61.7,29.65,WNW,302,0.5,1.1,99,0.00,OVC,SKC,0.00,WeatherDisplay:10.37,2013-05-28 09:22:00,
2013-05-28 04:27:00,62.0,61.7,29.66,NW,304,0.8,2.3,99,0.00,OVC,SKC,0.00,WeatherDisplay:10.37,2013-05-28 09:27:00,
2013-05-28 04:32:00,62.1,61.8,29.65,NW,325,0.2,2.0,99,0.00,OVC,SKC,0.00,WeatherDisplay:10.37,2013-05-28 09:32:00,
2013-05-28 04:37:00,62.0,61.7,29.65,NNW,338,0.0,0.0,99,0.00,OVC,SKC,0.00,WeatherDisplay:10.37,2013-05-28 09:37:00,
2013-05-28 04:42:00,62.0,61.7,29.66,NNW,330,1.7,3.5,99,0.00,OVC,SKC,0.00,WeatherDisplay:10.37,2013-05-28 09:42:00,
2013-05-28 04:47:00,62.0,61.7,29.65,NNE,31,2.6,3.5,99,0.00,OVC,SKC,0.00,WeatherDisplay:10.37,2013-05-28 09:47:00,
2013-05-28 04:52:00,62.1,61.8,29.65,NNE,25,1.7,3.5,99,0.00,OVC,SKC,0.00,WeatherDisplay:10.37,2013-05-28 09:52:00,
2013-05-28 04:57:00,62.1,61.8,29.64,NNE,27,3.3,5.8,99,0.00,OVC,SKC,0.00,WeatherDisplay:10.37,2013-05-28 09:57:00,
2013-05-28 05:02:00,62.1,61.8,29.65,NNW,338,2.2,5.8,99,0.00,OVC,SKC,0.00,WeatherDisplay:10.37,2013-05-28 10:02:00,
2013-05-28 05:07:00,62.0,61.7,29.65,NW,323,0.5,3.5,99,0.00,OVC,SKC,0.00,WeatherDisplay:10.37,2013-05-28 10:07:00,
2013-05-28 05:12:00,62.0,61.7,29.65,NW,312,0.6,2.3,99,0.00,OVC,SKC,0.00,WeatherDisplay:10.37,2013-05-28 10:12:00,
2013-05-28 05:17:00,61.9,61.6,29.66,North,11,1.2,2.3,99,0.00,OVC,SKC,0.00,WeatherDisplay:10.37,2013-05-28 10:17:00,
2013-05-28 05:22:00,61.8,61.2,29.66,North,349,3.5,5.0,98,0.00,OVC,SKC,0.00,WeatherDisplay:10.37,2013-05-28 10:22:00,
2013-05-28 05:27:00,61.7,61.1,29.66,NNE,20,1.3,2.3,98,0.00,OVC,SKC,0.00,WeatherDisplay:10.37,2013-05-28 10:27:00,
2013-05-28 05:32:00,61.6,61.0,29.66,NNW,345,0.0,0.0,98,0.00,OVC,SKC,0.00,WeatherDisplay:10.37,2013-05-28 10:32:00,
2013-05-28 05:37:00,61.4,60.8,29.66,NE,40,0.3,2.0,98,0.00,OVC,SKC,0.00,WeatherDisplay:10.37,2013-05-28 10:37:00,
2013-05-28 05:42:00,61.4,61.1,29.67,NNW,335,0.0,1.1,99,0.00,OVC,SKC,0.00,WeatherDisplay:10.37,2013-05-28 10:42:00,
2013-05-28 05:47:00,61.4,61.1,29.66,NW,314,2.9,3.5,99,0.00,OVC,SKC,0.00,WeatherDisplay:10.37,2013-05-28 10:47:00,
2013-05-28 05:52:00,61.4,61.1,29.66,North,6,1.2,3.5,99,0.00,OVC,SKC,0.00,WeatherDisplay:10.37,2013-05-28 10:52:00,
2013-05-28 05:57:00,61.4,61.1,29.66,NNW,333,0.0,0.0,99,0.00,OVC,SKC,0.00,WeatherDisplay:10.37,2013-05-28 10:57:00,
2013-05-28 06:02:00,61.4,61.1,29.66,NNW,327,0.0,1.1,99,0.00,OVC,SKC,0.00,WeatherDisplay:10.37,2013-05-28 11:02:00,
2013-05-28 06:07:00,61.4,61.1,29.65,NNW,327,0.0,0.0,99,0.00,OVC,SKC,0.00,WeatherDisplay:10.37,2013-05-28 11:07:00,
2013-05-28 06:12:00,61.4,60.8,29.65,North,3,0.5,3.5,98,0.00,OVC,SKC,0.00,WeatherDisplay:10.37,2013-05-28 11:12:00,
2013-05-28 06:17:00,61.4,60.8,29.65,North,352,0.0,1.1,98,0.00,OVC,SKC,0.00,WeatherDisplay:10.37,2013-05-28 11:17:00,
2013-05-28 06:22:00,61.4,60.8,29.65,North,356,0.0,0.0,98,0.00,OVC,SKC,0.00,WeatherDisplay:10.37,2013-05-28 11:22:00,
2013-05-28 06:28:00,61.4,60.8,29.65,NNW,347,0.9,1.1,98,0.00,OVC,SKC,0.00,WeatherDisplay:10.37,2013-05-28 11:28:00,
2013-05-28 06:33:00,61.4,60.8,29.65,NW,325,0.0,0.0,98,0.00,OVC,SKC,0.00,WeatherDisplay:10.37,2013-05-28 11:33:00,
2013-05-28 06:38:00,61.5,60.9,29.65,NNW,327,0.0,0.0,98,0.00,OVC,SKC,0.00,WeatherDisplay:10.37,2013-05-28 11:38:00,
2013-05-28 06:43:00,61.5,60.9,29.65,NNW,337,0.0,0.0,98,0.00,OVC,SKC,0.00,WeatherDisplay:10.37,2013-05-28 11:43:00,
2013-05-28 06:48:00,61.6,61.0,29.65,North,349,0.9,2.3,98,0.00,OVC,SKC,0.00,WeatherDisplay:10.37,2013-05-28 11:48:00,
2013-05-28 06:53:00,61.6,61.0,29.65,NNW,342,0.7,2.3,98,0.00,OVC,SKC,0.00,WeatherDisplay:10.37,2013-05-28 11:53:00,
2013-05-28 06:58:00,61.4,60.5,29.65,NW,311,1.2,3.5,97,0.00,OVC,SKC,0.00,WeatherDisplay:10.37,2013-05-28 11:58:00,
2013-05-28 07:03:00,61.3,60.4,29.64,NNE,15,1.0,2.3,97,0.00,OVC,SKC,0.00,WeatherDisplay:10.37,2013-05-28 12:03:00,
2013-05-28 07:08:00,61.1,60.2,29.64,NNE,14,0.3,3.5,97,0.00,OVC,SKC,0.00,WeatherDisplay:10.37,2013-05-28 12:08:00,
2013-05-28 07:13:00,61.1,60.2,29.65,North,354,1.6,2.3,97,0.00,OVC,SKC,0.00,WeatherDisplay:10.37,2013-05-28 12:13:00,
2013-05-28 07:18:00,61.2,60.3,29.65,NE,44,0.0,1.1,97,0.00,OVC,SKC,0.00,WeatherDisplay:10.37,2013-05-28 12:18:00,
2013-05-28 07:23:00,61.3,60.4,29.64,NE,44,0.0,0.0,97,0.00,OVC,SKC,0.00,WeatherDisplay:10.37,2013-05-28 12:23:00,
2013-05-28 07:28:00,61.4,60.5,29.64,NE,41,0.4,3.5,97,0.00,OVC,SKC,0.00,WeatherDisplay:10.37,2013-05-28 12:28:00,
2013-05-28 07:33:00,61.5,60.3,29.64,NE,49,0.0,0.0,96,0.00,OVC,SKC,0.00,WeatherDisplay:10.37,2013-05-28 12:33:00,
2013-05-28 07:38:00,61.9,61.0,29.65,East,86,0.0,2.3,97,0.00,OVC,SKC,0.00,WeatherDisplay:10.37,2013-05-28 12:38:00,
2013-05-28 07:43:00,62.2,61.0,29.65,SE,131,1.3,2.3,96,0.00,SCT,SKC,0.00,WeatherDisplay:10.37,2013-05-28 12:43:00,
2013-05-28 07:48:00,62.7,61.2,29.65,SSE,150,1.9,3.5,95,0.00,SCT,SKC,0.00,WeatherDisplay:10.37,2013-05-28 12:48:00,
2013-05-28 07:53:00,62.8,61.3,29.65,SSW,195,1.3,2.3,95,0.00,SCT,SKC,0.00,WeatherDisplay:10.37,2013-05-28 12:53:00,
2013-05-28 07:58:00,62.9,61.4,29.65,South,176,1.9,3.5,95,0.00,SCT,SKC,0.00,WeatherDisplay:10.37,2013-05-28 12:58:00,
2013-05-28 08:03:00,63.2,61.7,29.65,East,101,0.0,0.0,95,0.00,CLR,SKC,0.00,WeatherDisplay:10.37,2013-05-28 13:03:00,
2013-05-28 08:08:00,63.4,61.6,29.65,SE,135,1.9,2.3,94,0.00,CLR,SKC,0.00,WeatherDisplay:10.37,2013-05-28 13:08:00,
2013-05-28 08:13:00,63.5,61.4,29.65,ESE,111,0.4,2.0,93,0.00,CLR,SKC,0.00,WeatherDisplay:10.37,2013-05-28 13:13:00,
2013-05-28 08:18:00,63.6,61.5,29.65,ESE,108,3.1,3.5,93,0.00,CLR,SKC,0.00,WeatherDisplay:10.37,2013-05-28 13:18:00,
2013-05-28 08:23:00,63.7,61.9,29.65,ESE,120,1.8,3.5,94,0.00,CLR,SKC,0.00,WeatherDisplay:10.37,2013-05-28 13:23:00,
2013-05-28 08:28:00,64.0,61.9,29.64,SE,145,2.8,4.6,93,0.00,CLR,SKC,0.00,WeatherDisplay:10.37,2013-05-28 13:28:00,
2013-05-28 08:33:00,64.9,62.8,29.64,ESE,103,0.2,1.1,93,0.00,CLR,SKC,0.00,WeatherDisplay:10.37,2013-05-28 13:33:00,
2013-05-28 08:38:00,65.6,62.6,29.64,SSE,155,2.0,3.5,90,0.00,CLR,SKC,0.00,WeatherDisplay:10.37,2013-05-28 13:38:00,
2013-05-28 08:43:00,65.8,62.5,29.64,ESE,109,3.0,3.5,89,0.00,CLR,SKC,0.00,WeatherDisplay:10.37,2013-05-28 13:43:00,
2013-05-28 08:48:00,66.2,62.9,29.64,SSE,154,3.3,4.0,89,0.00,CLR,SKC,0.00,WeatherDisplay:10.37,2013-05-28 13:48:00,
2013-05-28 08:53:00,66.6,62.9,29.64,ESE,110,2.5,3.5,88,0.00,CLR,SKC,0.00,WeatherDisplay:10.37,2013-05-28 13:53:00,
2013-05-28 08:58:00,66.8,62.8,29.64,East,101,2.2,5.0,87,0.00,CLR,SKC,0.00,WeatherDisplay:10.37,2013-05-28 13:58:00,
2013-05-28 09:03:00,67.3,63.3,29.64,ESE,108,1.7,2.3,87,0.00,CLR,SKC,0.00,WeatherDisplay:10.37,2013-05-28 14:03:00,
2013-05-28 09:08:00,67.9,63.6,29.63,SSE,158,1.5,3.5,86,0.00,CLR,SKC,0.00,WeatherDisplay:10.37,2013-05-28 14:08:00,
2013-05-28 09:13:00,68.5,63.1,29.63,ESE,120,0.1,1.1,83,0.00,CLR,SKC,0.00,WeatherDisplay:10.37,2013-05-28 14:13:00,
2013-05-28 09:18:00,69.0,64.0,29.62,ENE,65,0.2,2.0,84,0.00,CLR,SKC,0.00,WeatherDisplay:10.37,2013-05-28 14:18:00,
2013-05-28 09:23:00,69.1,63.4,29.62,SE,129,1.2,2.3,82,0.00,CLR,SKC,0.00,WeatherDisplay:10.37,2013-05-28 14:23:00,
2013-05-28 09:28:00,70.0,64.2,29.62,NE,56,0.3,1.1,82,0.00,CLR,SKC,0.00,WeatherDisplay:10.37,2013-05-28 14:28:00,
2013-05-28 09:33:00,70.5,63.7,29.61,ENE,63,0.5,2.3,79,0.00,CLR,SKC,0.00,WeatherDisplay:10.37,2013-05-28 14:33:00,
2013-05-28 09:38:00,70.8,63.6,29.62,SE,134,1.3,2.3,78,0.00,CLR,SKC,0.00,WeatherDisplay:10.37,2013-05-28 14:38:00,
2013-05-28 09:43:00,71.0,63.8,29.61,SSW,211,0.6,1.1,78,0.00,CLR,SKC,0.00,WeatherDisplay:10.37,2013-05-28 14:43:00,
2013-05-28 09:48:00,71.2,63.2,29.62,SE,138,1.2,3.5,76,0.00,CLR,SKC,0.00,WeatherDisplay:10.37,2013-05-28 14:48:00,
2013-05-28 09:53:00,71.1,63.1,29.62,WSW,253,0.0,0.0,76,0.00,CLR,SKC,0.00,WeatherDisplay:10.37,2013-05-28 14:53:00,
2013-05-28 09:58:00,71.8,63.8,29.62,SW,232,0.0,0.0,76,0.00,CLR,SKC,0.00,WeatherDisplay:10.37,2013-05-28 14:58:00,
2013-05-28 10:03:00,72.8,63.6,29.62,WNW,287,2.2,3.5,73,0.00,CLR,SKC,0.00,WeatherDisplay:10.37,2013-05-28 15:03:00,
2013-05-28 10:08:00,71.7,63.4,29.62,SW,233,1.3,2.3,75,0.00,CLR,SKC,0.00,WeatherDisplay:10.37,2013-05-28 15:08:00,
2013-05-28 10:13:00,71.4,63.4,29.62,North,351,0.4,1.1,76,0.00,CLR,SKC,0.00,WeatherDisplay:10.37,2013-05-28 15:13:00,
2013-05-28 10:18:00,71.8,63.4,29.62,WSW,243,0.4,1.1,75,0.00,CLR,SKC,0.00,WeatherDisplay:10.37,2013-05-28 15:18:00,
2013-05-28 10:23:00,72.6,63.8,29.62,SSW,202,1.3,3.5,74,0.00,CLR,SKC,0.00,WeatherDisplay:10.37,2013-05-28 15:23:00,
2013-05-28 10:28:00,73.2,63.6,29.62,ESE,107,1.6,3.5,72,0.00,CLR,SKC,0.00,WeatherDisplay:10.37,2013-05-28 15:28:00,
2013-05-28 10:33:00,73.4,63.8,29.63,West,276,0.9,2.3,72,0.00,CLR,SKC,0.00,WeatherDisplay:10.37,2013-05-28 15:33:00,
2013-05-28 10:38:00,73.6,64.0,29.63,NE,45,0.7,1.1,72,0.00,CLR,SKC,0.00,WeatherDisplay:10.37,2013-05-28 15:38:00,
2013-05-28 10:43:00,74.0,64.0,29.64,South,174,1.6,3.5,71,0.00,CLR,SKC,0.00,WeatherDisplay:10.37,2013-05-28 15:43:00,
2013-05-28 10:48:00,74.5,64.5,29.64,NNW,332,1.3,3.5,71,0.00,CLR,SKC,0.00,WeatherDisplay:10.37,2013-05-28 15:48:00,
2013-05-28 10:53:00,73.9,64.3,29.64,WSW,237,1.5,3.5,72,0.00,CLR,SKC,0.00,WeatherDisplay:10.37,2013-05-28 15:53:00,
2013-05-28 10:58:00,73.1,63.9,29.64,West,280,1.0,3.5,73,0.00,CLR,SKC,0.00,WeatherDisplay:10.37,2013-05-28 15:58:00,
2013-05-28 11:03:00,72.9,64.1,29.65,WNW,283,0.0,1.1,74,0.00,CLR,SKC,0.00,WeatherDisplay:10.37,2013-05-28 16:03:00,
2013-05-28 11:08:00,73.1,63.5,29.65,NE,36,3.4,4.6,72,0.00,CLR,SKC,0.00,WeatherDisplay:10.37,2013-05-28 16:08:00,
2013-05-28 11:13:00,73.5,64.3,29.65,ENE,68,2.4,3.5,73,0.00,CLR,SKC,0.00,WeatherDisplay:10.37,2013-05-28 16:13:00,
2013-05-28 11:18:00,73.5,63.9,29.65,WNW,294,0.0,1.1,72,0.00,CLR,SKC,0.00,WeatherDisplay:10.37,2013-05-28 16:18:00,
2013-05-28 11:23:00,73.7,63.7,29.66,North,351,0.7,2.3,71,0.00,CLR,SKC,0.00,WeatherDisplay:10.37,2013-05-28 16:23:00,
2013-05-28 11:28:00,74.4,64.0,29.66,West,278,1.7,3.0,70,0.00,CLR,SKC,0.00,WeatherDisplay:10.37,2013-05-28 16:28:00,
2013-05-28 11:33:00,74.8,62.7,29.66,NNE,16,3.9,6.0,66,0.00,CLR,SKC,0.00,WeatherDisplay:10.37,2013-05-28 16:33:00,
2013-05-28 11:38:00,74.7,64.7,29.66,NW,326,1.9,3.5,71,0.00,CLR,SKC,0.00,WeatherDisplay:10.37,2013-05-28 16:38:00,
2013-05-28 11:43:00,75.1,63.8,29.66,WNW,300,2.2,3.5,68,0.00,BKN,SKC,0.00,WeatherDisplay:10.37,2013-05-28 16:43:00,
2013-05-28 11:48:00,75.3,63.2,29.66,NNE,18,4.9,5.8,66,0.00,BKN,SKC,0.00,WeatherDisplay:10.37,2013-05-28 16:48:00,
2013-05-28 11:53:00,75.5,64.2,29.66,NNW,327,1.4,2.3,68,0.00,BKN,SKC,0.00,WeatherDisplay:10.37,2013-05-28 16:53:00,
2013-05-28 11:58:00,75.7,64.8,29.66,South,172,1.3,3.5,69,0.00,BKN,SKC,0.00,WeatherDisplay:10.37,2013-05-28 16:58:00,
2013-05-28 12:03:00,75.6,63.4,29.66,North,4,4.2,8.1,66,0.00,BKN,SKC,0.00,WeatherDisplay:10.37,2013-05-28 17:03:00,
2013-05-28 12:08:00,75.8,64.1,29.65,NW,304,0.3,2.3,67,0.00,BKN,SKC,0.00,WeatherDisplay:10.37,2013-05-28 17:08:00,
2013-05-28 12:13:00,75.9,64.2,29.65,NW,319,1.7,3.5,67,0.00,BKN,SKC,0.00,WeatherDisplay:10.37,2013-05-28 17:13:00,
2013-05-28 12:18:00,76.0,65.1,29.65,West,278,0.1,0.0,69,0.00,BKN,SKC,0.00,WeatherDisplay:10.37,2013-05-28 17:18:00,
2013-05-28 12:23:00,76.8,64.6,29.65,North,356,3.2,3.5,66,0.00,BKN,SKC,0.00,WeatherDisplay:10.37,2013-05-28 17:23:00,
2013-05-28 12:28:00,76.5,63.9,29.65,West,269,0.6,1.1,65,0.00,BKN,SKC,0.00,WeatherDisplay:10.37,2013-05-28 17:28:00,
2013-05-28 12:33:00,77.0,64.3,29.65,North,10,1.7,3.5,65,0.00,BKN,SKC,0.00,WeatherDisplay:10.37,2013-05-28 17:33:00,
2013-05-28 12:39:00,76.9,63.8,29.65,NW,321,4.0,5.8,64,0.00,BKN,SKC,0.00,WeatherDisplay:10.37,2013-05-28 17:39:00,
2013-05-28 12:44:00,77.2,64.5,29.65,WNW,300,2.9,3.5,65,0.00,SCT,SKC,0.00,WeatherDisplay:10.37,2013-05-28 17:44:00,
2013-05-28 12:49:00,77.4,64.3,29.65,NNE,12,3.4,3.5,64,0.00,SCT,SKC,0.00,WeatherDisplay:10.37,2013-05-28 17:49:00,
2013-05-28 12:54:00,77.1,64.9,29.65,NW,322,2.9,4.6,66,0.00,SCT,SKC,0.00,WeatherDisplay:10.37,2013-05-28 17:54:00,
2013-05-28 12:59:00,77.1,65.7,29.65,NNE,27,2.9,3.5,68,0.00,SCT,SKC,0.00,WeatherDisplay:10.37,2013-05-28 17:59:00,
2013-05-28 13:04:00,77.4,66.4,29.65,NE,46,4.0,4.6,69,0.00,SCT,SKC,0.00,WeatherDisplay:10.37,2013-05-28 18:04:00,
2013-05-28 13:09:00,77.4,65.6,29.65,NNE,14,1.6,2.3,67,0.00,SCT,SKC,0.00,WeatherDisplay:10.37,2013-05-28 18:09:00,
2013-05-28 13:14:00,77.3,65.9,29.65,ENE,73,3.9,4.6,68,0.00,SCT,SKC,0.00,WeatherDisplay:10.37,2013-05-28 18:14:00,
2013-05-28 13:19:00,77.5,66.5,29.65,North,8,3.0,5.8,69,0.00,SCT,SKC,0.00,WeatherDisplay:10.37,2013-05-28 18:19:00,
2013-05-28 13:24:00,77.0,65.6,29.65,NW,323,2.0,3.5,68,0.00,SCT,SKC,0.00,WeatherDisplay:10.37,2013-05-28 18:24:00,
2013-05-28 13:29:00,77.1,65.7,29.65,NNE,13,3.8,4.0,68,0.00,SCT,SKC,0.00,WeatherDisplay:10.37,2013-05-28 18:29:00,
2013-05-28 13:34:00,77.0,66.5,29.65,NNE,25,2.3,4.6,70,0.00,SCT,SKC,0.00,WeatherDisplay:10.37,2013-05-28 18:34:00,
2013-05-28 13:39:00,77.2,65.4,29.65,NE,47,1.5,6.9,67,0.00,SCT,SKC,0.00,WeatherDisplay:10.37,2013-05-28 18:39:00,
2013-05-28 13:44:00,76.9,66.0,29.65,NNE,17,3.2,4.6,69,0.00,CLR,SKC,0.00,WeatherDisplay:10.37,2013-05-28 18:44:00,
2013-05-28 13:49:00,77.1,65.7,29.66,NNW,328,3.8,5.0,68,0.00,CLR,SKC,0.00,WeatherDisplay:10.37,2013-05-28 18:49:00,
2013-05-28 13:54:00,76.6,65.2,29.66,ESE,102,2.5,3.5,68,0.00,CLR,SKC,0.00,WeatherDisplay:10.37,2013-05-28 18:54:00,
2013-05-28 13:59:00,77.0,66.0,29.66,NW,323,2.7,4.6,69,0.00,CLR,SKC,0.00,WeatherDisplay:10.37,2013-05-28 18:59:00,
2013-05-28 14:04:00,76.7,65.3,29.66,NE,48,0.4,3.5,68,0.00,CLR,SKC,0.00,WeatherDisplay:10.37,2013-05-28 19:04:00,
2013-05-28 14:09:00,76.9,65.5,29.66,North,356,1.6,3.5,68,0.00,CLR,SKC,0.00,WeatherDisplay:10.37,2013-05-28 19:09:00,
2013-05-28 14:14:00,76.6,65.2,29.66,North,351,1.1,3.5,68,0.00,CLR,SKC,0.00,WeatherDisplay:10.37,2013-05-28 19:14:00,
2013-05-28 14:19:00,76.6,66.1,29.66,NE,37,3.2,4.6,70,0.00,CLR,SKC,0.00,WeatherDisplay:10.37,2013-05-28 19:19:00,
2013-05-28 14:24:00,76.5,66.0,29.66,NE,34,2.6,3.5,70,0.00,CLR,SKC,0.00,WeatherDisplay:10.37,2013-05-28 19:24:00,
2013-05-28 14:29:00,76.4,65.5,29.66,NE,52,4.1,5.8,69,0.00,CLR,SKC,0.00,WeatherDisplay:10.37,2013-05-28 19:29:00,
2013-05-28 14:34:00,76.7,66.2,29.66,NNW,340,1.4,3.5,70,0.00,CLR,SKC,0.00,WeatherDisplay:10.37,2013-05-28 19:34:00,
2013-05-28 14:39:00,77.1,65.7,29.66,East,85,5.8,6.9,68,0.00,CLR,SKC,0.00,WeatherDisplay:10.37,2013-05-28 19:39:00,
2013-05-28 14:44:00,76.7,65.3,29.66,East,98,1.5,3.5,68,0.00,CLR,SKC,0.00,WeatherDisplay:10.37,2013-05-28 19:44:00,
2013-05-28 14:49:00,76.8,66.3,29.66,SE,127,3.6,4.6,70,0.00,CLR,SKC,0.00,WeatherDisplay:10.37,2013-05-28 19:49:00,
2013-05-28 14:54:00,76.9,65.5,29.66,NNE,18,4.2,6.9,68,0.00,CLR,SKC,0.00,WeatherDisplay:10.37,2013-05-28 19:54:00,
2013-05-28 14:59:00,77.0,65.6,29.67,East,90,5.6,6.9,68,0.00,CLR,SKC,0.00,WeatherDisplay:10.37,2013-05-28 19:59:00,
2013-05-28 15:04:00,77.6,65.3,29.67,NE,37,3.6,4.6,66,0.00,CLR,SKC,0.00,WeatherDisplay:10.37,2013-05-28 20:04:00,
2013-05-28 15:09:00,77.4,64.7,29.67,ENE,62,3.0,3.5,65,0.00,CLR,SKC,0.00,WeatherDisplay:10.37,2013-05-28 20:09:00,
2013-05-28 15:14:00,77.8,64.6,29.67,ESE,109,2.4,3.5,64,0.00,CLR,SKC,0.00,WeatherDisplay:10.37,2013-05-28 20:14:00,
2013-05-28 15:19:00,78.2,65.0,29.67,East,96,1.7,2.3,64,0.00,CLR,SKC,0.00,WeatherDisplay:10.37,2013-05-28 20:19:00,
2013-05-28 15:24:00,79.5,65.8,29.67,ENE,76,1.2,3.0,63,0.00,CLR,SKC,0.00,WeatherDisplay:10.37,2013-05-28 20:24:00,
2013-05-28 15:29:00,79.7,66.0,29.67,ENE,75,4.8,6.9,63,0.00,CLR,SKC,0.00,WeatherDisplay:10.37,2013-05-28 20:29:00,
2013-05-28 15:34:00,79.7,65.5,29.67,ESE,106,3.1,6.9,62,0.00,CLR,SKC,0.00,WeatherDisplay:10.37,2013-05-28 20:34:00,
2013-05-28 15:39:00,78.8,63.7,29.67,NE,46,4.3,8.1,60,0.00,CLR,SKC,0.00,WeatherDisplay:10.37,2013-05-28 20:39:00,
2013-05-28 15:44:00,78.4,64.3,29.67,NNW,332,0.2,1.1,62,0.00,CLR,SKC,0.00,WeatherDisplay:10.37,2013-05-28 20:44:00,
2013-05-28 15:49:00,78.3,64.2,29.67,East,93,1.5,3.5,62,0.00,CLR,SKC,0.00,WeatherDisplay:10.37,2013-05-28 20:49:00,
2013-05-28 15:54:00,78.2,64.6,29.67,ENE,68,1.6,3.5,63,0.00,CLR,SKC,0.00,WeatherDisplay:10.37,2013-05-28 20:54:00,
2013-05-28 15:59:00,78.5,63.9,29.67,North,349,2.5,3.5,61,0.00,CLR,SKC,0.00,WeatherDisplay:10.37,2013-05-28 20:59:00,
2013-05-28 16:04:00,78.5,63.0,29.67,NE,50,1.8,3.5,59,0.00,CLR,SKC,0.00,WeatherDisplay:10.37,2013-05-28 21:04:00,
2013-05-28 16:09:00,78.9,63.4,29.66,ESE,115,2.6,3.5,59,0.00,CLR,SKC,0.00,WeatherDisplay:10.37,2013-05-28 21:09:00,
2013-05-28 16:14:00,78.9,62.9,29.67,NE,35,3.3,4.6,58,0.00,CLR,SKC,0.00,WeatherDisplay:10.37,2013-05-28 21:14:00,
2013-05-28 16:19:00,78.6,63.1,29.66,NNW,335,3.1,6.9,59,0.00,CLR,SKC,0.00,WeatherDisplay:10.37,2013-05-28 21:19:00,
2013-05-28 16:24:00,78.2,63.2,29.66,NNW,347,4.4,6.9,60,0.00,CLR,SKC,0.00,WeatherDisplay:10.37,2013-05-28 21:24:00,
2013-05-28 16:29:00,78.4,63.8,29.66,NNW,327,3.7,4.6,61,0.00,CLR,SKC,0.00,WeatherDisplay:10.37,2013-05-28 21:29:00,
2013-05-28 16:34:00,78.7,63.6,29.65,NNE,30,6.3,9.2,60,0.00,CLR,SKC,0.00,WeatherDisplay:10.37,2013-05-28 21:34:00,
2013-05-28 16:39:00,78.6,63.6,29.64,North,356,5.5,9.2,60,0.00,CLR,SKC,0.00,WeatherDisplay:10.37,2013-05-28 21:39:00,
2013-05-28 16:44:00,78.5,63.0,29.64,NNE,13,7.1,10.4,59,0.00,CLR,SKC,0.00,WeatherDisplay:10.37,2013-05-28 21:44:00,
2013-05-28 16:49:00,78.3,63.7,29.64,North,357,3.1,6.9,61,0.00,CLR,SKC,0.00,WeatherDisplay:10.37,2013-05-28 21:49:00,
2013-05-28 16:54:00,78.3,63.7,29.63,North,351,5.0,8.1,61,0.00,CLR,SKC,0.00,WeatherDisplay:10.37,2013-05-28 21:54:00,
2013-05-28 16:59:00,77.9,64.7,29.62,ENE,57,4.6,7.0,64,0.00,CLR,SKC,0.00,WeatherDisplay:10.37,2013-05-28 21:59:00,
2013-05-28 17:04:00,77.5,64.8,29.61,ENE,69,7.5,10.4,65,0.00,CLR,SKC,0.00,WeatherDisplay:10.37,2013-05-28 22:04:00,
2013-05-28 17:09:00,77.2,64.5,29.61,NE,41,6.8,9.2,65,0.00,CLR,SKC,0.00,WeatherDisplay:10.37,2013-05-28 22:09:00,
2013-05-28 17:14:00,77.2,64.1,29.61,NE,47,6.8,6.9,64,0.00,CLR,SKC,0.00,WeatherDisplay:10.37,2013-05-28 22:14:00,
2013-05-28 17:19:00,77.3,63.7,29.61,NE,41,7.1,10.0,63,0.00,CLR,SKC,0.00,WeatherDisplay:10.37,2013-05-28 22:19:00,
2013-05-28 17:24:00,77.3,62.3,29.61,NE,46,6.8,11.5,60,0.00,CLR,SKC,0.00,WeatherDisplay:10.37,2013-05-28 22:24:00,
2013-05-28 17:29:00,77.4,62.9,29.61,ENE,66,5.2,9.2,61,0.00,CLR,SKC,0.00,WeatherDisplay:10.37,2013-05-28 22:29:00,
2013-05-28 17:34:00,77.7,61.7,29.62,NE,42,6.4,11.5,58,0.00,CLR,SKC,0.00,WeatherDisplay:10.37,2013-05-28 22:34:00,
2013-05-28 17:39:00,77.9,61.9,29.61,NNE,12,7.2,9.2,58,0.00,CLR,SKC,0.00,WeatherDisplay:10.37,2013-05-28 22:39:00,
2013-05-28 17:44:00,78.1,61.6,29.61,NNE,22,4.4,10.4,57,0.00,CLR,SKC,0.00,WeatherDisplay:10.37,2013-05-28 22:44:00,
2013-05-28 17:49:00,78.5,61.0,29.60,NE,41,4.6,9.0,55,0.00,CLR,SKC,0.00,WeatherDisplay:10.37,2013-05-28 22:49:00,
2013-05-28 17:54:00,78.6,57.3,29.60,NE,46,6.3,11.5,48,0.00,CLR,SKC,0.00,WeatherDisplay:10.37,2013-05-28 22:54:00,
2013-05-28 17:59:00,78.5,58.3,29.60,North,5,6.4,8.1,50,0.00,CLR,SKC,0.00,WeatherDisplay:10.37,2013-05-28 22:59:00,
2013-05-28 18:04:00,78.6,57.8,29.60,NE,47,3.6,6.9,49,0.00,CLR,SKC,0.00,WeatherDisplay:10.37,2013-05-28 23:04:00,
2013-05-28 18:09:00,78.6,57.8,29.61,NE,51,7.6,11.0,49,0.00,CLR,SKC,0.00,WeatherDisplay:10.37,2013-05-28 23:09:00,
2013-05-28 18:14:00,78.6,56.1,29.61,ESE,105,7.0,10.4,46,0.00,CLR,SKC,0.00,WeatherDisplay:10.37,2013-05-28 23:14:00,
2013-05-28 18:19:00,78.6,58.4,29.60,ENE,63,6.4,8.1,50,0.00,CLR,SKC,0.00,WeatherDisplay:10.37,2013-05-28 23:19:00,
2013-05-28 18:25:00,78.7,60.1,29.60,NNE,22,5.8,7.0,53,0.00,CLR,SKC,0.00,WeatherDisplay:10.37,2013-05-28 23:25:00,
2013-05-28 18:30:00,78.6,61.1,29.60,NNE,25,6.0,10.4,55,0.00,CLR,SKC,0.00,WeatherDisplay:10.37,2013-05-28 23:30:00,
2013-05-28 18:35:00,78.5,63.0,29.60,NE,51,3.7,9.2,59,0.00,CLR,SKC,0.00,WeatherDisplay:10.37,2013-05-28 23:35:00,
2013-05-28 18:40:00,78.4,63.4,29.59,NE,56,6.2,12.7,60,0.00,CLR,SKC,0.00,WeatherDisplay:10.37,2013-05-28 23:40:00,
2013-05-28 18:45:00,78.6,64.0,29.60,NNE,25,5.8,8.1,61,0.00,CLR,SKC,0.00,WeatherDisplay:10.37,2013-05-28 23:45:00,
2013-05-28 18:50:00,78.5,64.4,29.59,NNE,25,6.2,9.2,62,0.00,CLR,SKC,0.00,WeatherDisplay:10.37,2013-05-28 23:50:00,
2013-05-28 18:55:00,78.4,64.3,29.59,NE,56,5.1,9.2,62,0.00,CLR,SKC,0.00,WeatherDisplay:10.37,2013-05-28 23:55:00,
2013-05-28 19:00:00,78.1,64.5,29.60,ENE,65,9.9,10.4,63,0.00,CLR,SKC,0.00,WeatherDisplay:10.37,2013-05-29 00:00:00,
2013-05-28 19:05:00,77.9,64.7,29.60,NE,41,3.9,6.9,64,0.00,CLR,SKC,0.00,WeatherDisplay:10.37,2013-05-29 00:05:00,
2013-05-28 19:10:00,77.8,64.6,29.61,NE,44,8.3,10.4,64,0.00,CLR,SKC,0.00,WeatherDisplay:10.37,2013-05-29 00:10:00,
2013-05-28 19:15:00,77.8,65.1,29.61,ENE,66,5.5,6.9,65,0.00,CLR,SKC,0.00,WeatherDisplay:10.37,2013-05-29 00:15:00,
2013-05-28 19:20:00,77.7,65.0,29.61,NE,38,5.1,8.1,65,0.00,CLR,SKC,0.00,WeatherDisplay:10.37,2013-05-29 00:20:00,
2013-05-28 19:25:00,77.6,65.3,29.60,NNE,23,6.7,11.5,66,0.00,CLR,SKC,0.00,WeatherDisplay:10.37,2013-05-29 00:25:00,
2013-05-28 19:30:00,77.6,65.3,29.60,ENE,58,6.2,9.2,66,0.00,CLR,SKC,0.00,WeatherDisplay:10.37,2013-05-29 00:30:00,
2013-05-28 19:35:00,77.6,65.3,29.60,ENE,58,3.6,6.9,66,0.00,CLR,SKC,0.00,WeatherDisplay:10.37,2013-05-29 00:35:00,
2013-05-28 19:40:00,77.6,65.3,29.59,East,82,1.9,4.6,66,0.00,CLR,SKC,0.00,WeatherDisplay:10.37,2013-05-29 00:40:00,
2013-05-28 19:45:00,77.6,64.9,29.59,ENE,61,4.2,6.9,65,0.00,CLR,SKC,0.00,WeatherDisplay:10.37,2013-05-29 00:45:00,
2013-05-28 19:50:00,77.7,65.0,29.59,East,90,3.7,9.2,65,0.00,CLR,SKC,0.00,WeatherDisplay:10.37,2013-05-29 00:50:00,
2013-05-28 19:55:00,77.5,64.8,29.60,ESE,104,5.7,10.4,65,0.00,CLR,SKC,0.00,WeatherDisplay:10.37,2013-05-29 00:55:00,
2013-05-28 20:00:00,77.5,64.8,29.60,NNE,30,5.9,9.2,65,0.00,CLR,SKC,0.00,WeatherDisplay:10.37,2013-05-29 01:00:00,
2013-05-28 20:05:00,77.5,64.8,29.60,ENE,68,7.1,9.2,65,0.00,CLR,SKC,0.00,WeatherDisplay:10.37,2013-05-29 01:05:00,
2013-05-28 20:10:00,77.5,64.8,29.60,East,83,7.4,12.7,65,0.00,CLR,SKC,0.00,WeatherDisplay:10.37,2013-05-29 01:10:00,
2013-05-28 20:15:00,77.6,64.9,29.61,East,95,8.3,16.0,65,0.00,CLR,SKC,0.00,WeatherDisplay:10.37,2013-05-29 01:15:00,
2013-05-28 20:20:00,77.6,64.9,29.61,ENE,63,7.3,11.5,65,0.00,CLR,SKC,0.00,WeatherDisplay:10.37,2013-05-29 01:20:00,
2013-05-28 20:25:00,77.5,64.4,29.62,SE,127,7.6,10.4,64,0.00,CLR,SKC,0.00,WeatherDisplay:10.37,2013-05-29 01:25:00,
2013-05-28 20:30:00,77.4,64.7,29.62,SE,133,4.0,8.1,65,0.00,CLR,SKC,0.00,WeatherDisplay:10.37,2013-05-29 01:30:00,
2013-05-28 20:35:00,77.1,64.0,29.63,ESE,117,9.4,15.0,64,0.00,CLR,SKC,0.00,WeatherDisplay:10.37,2013-05-29 01:35:00,
2013-05-28 20:40:00,76.9,64.2,29.63,East,91,6.9,9.2,65,0.00,CLR,SKC,0.00,WeatherDisplay:10.37,2013-05-29 01:40:00,
2013-05-28 20:45:00,76.7,64.0,29.63,ESE,110,6.0,9.2,65,0.00,CLR,SKC,0.00,WeatherDisplay:10.37,2013-05-29 01:45:00,
2013-05-28 20:50:00,76.4,64.2,29.63,SE,127,6.9,9.2,66,0.00,CLR,SKC,0.00,WeatherDisplay:10.37,2013-05-29 01:50:00,
2013-05-28 20:55:00,76.2,64.4,29.64,ESE,108,5.7,9.2,67,0.00,CLR,SKC,0.00,WeatherDisplay:10.37,2013-05-29 01:55:00,
2013-05-28 21:00:00,76.0,64.2,29.64,East,92,4.7,8.1,67,0.00,CLR,SKC,0.00,WeatherDisplay:10.37,2013-05-29 02:00:00,
2013-05-28 21:05:00,75.8,64.5,29.64,ESE,109,4.6,10.4,68,0.00,CLR,SKC,0.00,WeatherDisplay:10.37,2013-05-29 02:05:00,
2013-05-28 21:10:00,75.6,64.7,29.65,SSE,160,3.2,4.6,69,0.00,CLR,SKC,0.00,WeatherDisplay:10.37,2013-05-29 02:10:00,
2013-05-28 21:15:00,75.4,64.5,29.64,East,97,4.0,9.2,69,0.00,CLR,SKC,0.00,WeatherDisplay:10.37,2013-05-29 02:15:00,
2013-05-28 21:20:00,75.3,64.4,29.65,ESE,119,5.2,8.1,69,0.00,CLR,SKC,0.00,WeatherDisplay:10.37,2013-05-29 02:20:00,
2013-05-28 21:25:00,75.1,64.2,29.65,East,83,4.7,9.2,69,0.00,CLR,SKC,0.00,WeatherDisplay:10.37,2013-05-29 02:25:00,
2013-05-28 21:30:00,75.0,64.5,29.65,SE,131,7.5,11.5,70,0.00,CLR,SKC,0.00,WeatherDisplay:10.37,2013-05-29 02:30:00,
2013-05-28 21:35:00,74.9,64.5,29.66,South,190,6.5,10.4,70,0.00,CLR,SKC,0.00,WeatherDisplay:10.37,2013-05-29 02:35:00,
2013-05-28 21:40:00,74.7,65.1,29.65,ESE,121,7.2,12.7,72,0.00,CLR,SKC,0.00,WeatherDisplay:10.37,2013-05-29 02:40:00,
2013-05-28 21:45:00,74.3,65.5,29.65,SSE,166,3.9,8.1,74,0.00,SCT,SKC,0.00,WeatherDisplay:10.37,2013-05-29 02:45:00,
2013-05-28 21:50:00,74.1,65.7,29.66,SE,141,4.4,6.9,75,0.00,SCT,SKC,0.00,WeatherDisplay:10.37,2013-05-29 02:50:00,
2013-05-28 21:55:00,73.8,65.8,29.65,ESE,108,2.0,5.8,76,0.00,SCT,SKC,0.00,WeatherDisplay:10.37,2013-05-29 02:55:00,
2013-05-28 22:00:00,73.6,65.6,29.65,SSE,152,3.3,8.0,76,0.00,SCT,SKC,0.00,WeatherDisplay:10.37,2013-05-29 03:00:00,
2013-05-28 22:05:00,73.3,65.3,29.64,SE,124,3.1,3.5,76,0.00,BKN,SKC,0.00,WeatherDisplay:10.37,2013-05-29 03:05:00,
2013-05-28 22:10:00,73.0,65.0,29.64,East,97,4.1,9.2,76,0.00,BKN,SKC,0.00,WeatherDisplay:10.37,2013-05-29 03:10:00,
2013-05-28 22:15:00,72.8,64.8,29.63,SSE,155,0.6,2.3,76,0.00,BKN,SKC,0.00,WeatherDisplay:10.37,2013-05-29 03:15:00,
2013-05-28 22:20:00,72.5,64.9,29.62,SSE,154,0.3,2.3,77,0.00,BKN,SKC,0.00,WeatherDisplay:10.37,2013-05-29 03:20:00,
2013-05-28 22:25:00,72.3,64.3,29.62,SE,133,0.0,1.1,76,0.00,BKN,SKC,0.00,WeatherDisplay:10.37,2013-05-29 03:25:00,
2013-05-28 22:30:00,72.1,64.5,29.63,SE,142,0.7,1.1,77,0.00,BKN,SKC,0.00,WeatherDisplay:10.37,2013-05-29 03:30:00,
2013-05-28 22:35:00,71.8,64.2,29.62,East,98,2.3,3.5,77,0.00,BKN,SKC,0.00,WeatherDisplay:10.37,2013-05-29 03:35:00,
2013-05-28 22:40:00,71.6,64.4,29.63,ESE,109,2.2,3.5,78,0.00,BKN,SKC,0.00,WeatherDisplay:10.37,2013-05-29 03:40:00,
2013-05-28 22:45:00,71.5,63.9,29.63,ESE,111,1.5,3.5,77,0.00,CLR,SKC,0.00,WeatherDisplay:10.37,2013-05-29 03:45:00,
2013-05-28 22:50:00,71.2,63.2,29.63,SE,125,3.6,6.9,76,0.00,CLR,SKC,0.00,WeatherDisplay:10.37,2013-05-29 03:50:00,
2013-05-28 22:55:00,70.9,63.3,29.63,East,98,1.2,2.3,77,0.00,CLR,SKC,0.00,WeatherDisplay:10.37,2013-05-29 03:55:00,
2013-05-28 23:00:00,70.7,63.1,29.64,SSW,204,1.1,2.3,77,0.00,CLR,SKC,0.00,WeatherDisplay:10.37,2013-05-29 04:00:00,
2013-05-28 23:01:00,70.6,63.0,29.64,SSW,203,1.3,5.0,77,0.00,CLR,SKC,0.00,WeatherDisplay:10.37,2013-05-29 04:01:00,
2013-05-28 23:06:00,70.4,62.8,29.64,SE,131,2.8,3.5,77,0.00,CLR,SKC,0.00,WeatherDisplay:10.37,2013-05-29 04:06:00,
2013-05-28 23:11:00,70.3,62.7,29.64,SE,135,0.9,2.3,77,0.00,CLR,SKC,0.00,WeatherDisplay:10.37,2013-05-29 04:11:00,
2013-05-28 23:16:00,70.1,62.9,29.64,SE,134,0.0,1.1,78,0.00,CLR,SKC,0.00,WeatherDisplay:10.37,2013-05-29 04:16:00,
2013-05-28 23:21:00,69.8,63.0,29.63,SE,132,0.1,0.0,79,0.00,CLR,SKC,0.00,WeatherDisplay:10.37,2013-05-29 04:21:00,
2013-05-28 23:26:00,69.7,62.9,29.65,SE,135,2.0,3.0,79,0.00,CLR,SKC,0.00,WeatherDisplay:10.37,2013-05-29 04:26:00,
2013-05-28 23:31:00,69.6,62.8,29.66,SE,129,4.6,5.8,79,0.00,CLR,SKC,0.00,WeatherDisplay:10.37,2013-05-29 04:31:00,
2013-05-28 23:36:00,69.6,62.4,29.65,ESE,122,3.0,4.6,78,0.00,CLR,SKC,0.00,WeatherDisplay:10.37,2013-05-29 04:36:00,
2013-05-28 23:41:00,69.7,62.5,29.65,East,94,4.7,6.0,78,0.00,CLR,SKC,0.00,WeatherDisplay:10.37,2013-05-29 04:41:00,
2013-05-28 23:46:00,69.7,62.5,29.64,East,92,4.0,6.9,78,0.00,CLR,SKC,0.00,WeatherDisplay:10.37,2013-05-29 04:46:00,
2013-05-28 23:51:00,69.6,62.4,29.64,ENE,65,3.3,5.8,78,0.00,CLR,SKC,0.00,WeatherDisplay:10.37,2013-05-29 04:51:00,
2013-05-28 23:56:00,69.5,62.3,29.63,ENE,75,5.4,9.2,78,0.00,CLR,SKC,0.00,WeatherDisplay:10.37,2013-05-29 04:56:00,